Melfa, VA

7:25 PM EST on January 20, 2017 (GMT -0500)
Accomack County

Weather History for KMFV - December, 2012

Change the Weather History Date:

Tuesday, December 18, 2012

  Actual Average (KWAL) Record (KWAL)
Temperature  
Mean Temperature 55 °F -  
Max Temperature 62 °F 47 °F 73 °F (1984)
Min Temperature 48 °F 30 °F 16 °F (1989)
Degree Days  
Heating Degree Days 10    
Growing Degree Days 5 (Base 50)    
Moisture  
Dew Point 48 °F    
Average Humidity 71    
Maximum Humidity 88    
Minimum Humidity 48    
Precipitation  
Precipitation 0.00 in - - ()
Sea Level Pressure  
Sea Level Pressure 29.65 in    
Wind  
Wind Speed 11 mph (ESE)    
Max Wind Speed 17 mph    
Max Gust Speed 26 mph    
Visibility 10 miles    
Events      
Averages and records for this station are not official NWS values.
T = Trace of Precipitation, MM = Missing Value Source: NWS Daily Summary

Daily Weather History Graph

Daily Weather History Graph

Search for Another Location

Airport or City:

Trip Planner

Search our weather history database for the weather conditions in past years. The results will help you decide how hot, cold, wet, or windy it might be!

Date:

Astronomy

Dec. 18, 2012 Rise Set
Actual Time 7:13 AM EST 4:46 PM EST
Civil Twilight 6:43 AM EST 5:16 PM EST
Nautical Twilight 6:10 AM EST 5:49 PM EST
Astronomical Twilight 5:38 AM EST 6:21 PM EST
Moon 10:57 AM EST (12/18) 11:03 PM EST (12/18)
Length of Visible Light 10h 32m
Length of Day
9h 33m
Waxing Crescent, 34% of the Moon is Illuminated
Dec 18
Waxing Crescent
Dec 20
First Quarter
Dec 28
Full
Jan 4
Last Quarter
Jan 11
New

Hourly Weather History & Observations

Time (EST) Temp. Dew Point Humidity Pressure Visibility Wind Dir Wind Speed Gust Speed Precip Events Conditions
12:15 AM 59.0 °F 55.4 °F 88% 29.61 in 10.0 mi ESE 8.1 mph - N/A   Overcast
12:35 AM 59.0 °F 55.4 °F 88% 29.60 in 10.0 mi East 9.2 mph - N/A   Overcast
12:55 AM 60.8 °F 55.4 °F 82% 29.60 in 10.0 mi ESE 8.1 mph 16.1 mph N/A   Overcast
1:15 AM 60.8 °F 55.4 °F 82% 29.60 in 10.0 mi East 11.5 mph 18.4 mph N/A   Overcast
1:35 AM 62.6 °F 55.4 °F 77% 29.61 in 10.0 mi East 12.7 mph 18.4 mph N/A   Overcast
1:56 AM 62.6 °F 55.4 °F 77% 29.61 in 10.0 mi East 15.0 mph 20.7 mph N/A   Overcast
2:15 AM 62.6 °F 55.4 °F 77% 29.61 in 10.0 mi East 12.7 mph 17.3 mph N/A   Overcast
2:35 AM 62.6 °F 55.4 °F 77% 29.61 in 10.0 mi East 11.5 mph 19.6 mph N/A   Overcast
2:55 AM 60.8 °F 55.4 °F 82% 29.61 in 10.0 mi ESE 9.2 mph - N/A   Overcast
3:15 AM 60.8 °F 55.4 °F 82% 29.61 in 10.0 mi East 10.4 mph 17.3 mph N/A   Overcast
3:35 AM 60.8 °F 55.4 °F 82% 29.61 in 10.0 mi East 13.8 mph 18.4 mph N/A   Overcast
3:55 AM 60.8 °F 53.6 °F 77% 29.60 in 10.0 mi East 11.5 mph 20.7 mph N/A   Scattered Clouds
4:15 AM 60.8 °F 53.6 °F 77% 29.59 in 10.0 mi East 11.5 mph 19.6 mph N/A   Scattered Clouds
4:35 AM 59.0 °F 53.6 °F 82% 29.59 in 10.0 mi ESE 9.2 mph 16.1 mph N/A   Clear
4:55 AM 59.0 °F 53.6 °F 82% 29.60 in 10.0 mi East 11.5 mph - N/A   Clear
5:15 AM 59.0 °F 53.6 °F 82% 29.59 in 10.0 mi East 12.7 mph - N/A   Clear
5:35 AM 57.2 °F 53.6 °F 88% 29.59 in 10.0 mi ESE 6.9 mph - N/A   Clear
5:55 AM 57.2 °F 53.6 °F 88% 29.59 in 10.0 mi East 10.4 mph - N/A   Clear
6:15 AM 57.2 °F 53.6 °F 88% 29.60 in 10.0 mi ESE 9.2 mph - N/A   Clear
6:35 AM 57.2 °F 53.6 °F 88% 29.60 in 10.0 mi ESE 9.2 mph - N/A   Clear
6:55 AM 57.2 °F 53.6 °F 88% 29.60 in 10.0 mi ESE 9.2 mph - N/A   Clear
7:15 AM 57.2 °F 53.6 °F 88% 29.61 in 10.0 mi ESE 9.2 mph - N/A   Clear
7:35 AM 57.2 °F 53.6 °F 88% 29.62 in 10.0 mi ESE 8.1 mph - N/A   Clear
7:55 AM 57.2 °F 53.6 °F 88% 29.63 in 10.0 mi ESE 9.2 mph - N/A   Scattered Clouds
8:15 AM 57.2 °F 53.6 °F 88% 29.63 in 10.0 mi ESE 6.9 mph - N/A   Scattered Clouds
8:35 AM 59.0 °F 55.4 °F 88% 29.62 in 10.0 mi ESE 8.1 mph - N/A   Mostly Cloudy
8:56 AM 59.0 °F 55.4 °F 88% 29.63 in 10.0 mi ESE 8.1 mph - N/A   Overcast
9:15 AM 59.0 °F 55.4 °F 88% 29.63 in 10.0 mi East 10.4 mph 17.3 mph N/A   Overcast
9:35 AM 59.0 °F 55.4 °F 88% 29.63 in 10.0 mi ESE 10.4 mph - N/A   Mostly Cloudy
9:55 AM 60.8 °F 55.4 °F 82% 29.63 in 10.0 mi ESE 9.2 mph 18.4 mph N/A   Mostly Cloudy
10:15 AM 60.8 °F 53.6 °F 77% 29.63 in 10.0 mi ESE 9.2 mph 18.4 mph N/A   Scattered Clouds
10:35 AM 60.8 °F 53.6 °F 77% 29.62 in 10.0 mi ESE 11.5 mph 17.3 mph N/A   Mostly Cloudy
10:55 AM 60.8 °F 51.8 °F 72% 29.62 in 10.0 mi East 15.0 mph 20.7 mph N/A   Scattered Clouds
11:15 AM 60.8 °F 51.8 °F 72% 29.61 in 10.0 mi ESE 11.5 mph 24.2 mph N/A   Mostly Cloudy
11:35 AM 60.8 °F 51.8 °F 72% 29.61 in 10.0 mi ESE 11.5 mph - N/A   Mostly Cloudy
11:56 AM 60.8 °F 51.8 °F 72% 29.60 in 10.0 mi ESE 10.4 mph - N/A   Mostly Cloudy
12:15 PM 62.6 °F 50.0 °F 63% 29.60 in 10.0 mi ESE 13.8 mph 18.4 mph N/A   Mostly Cloudy
12:35 PM 62.6 °F 48.2 °F 59% 29.60 in 10.0 mi ESE 12.7 mph 16.1 mph N/A   Mostly Cloudy
12:56 PM 62.6 °F 48.2 °F 59% 29.59 in 10.0 mi ESE 9.2 mph 18.4 mph N/A   Scattered Clouds
1:15 PM 62.6 °F 48.2 °F 59% 29.58 in 10.0 mi ESE 8.1 mph 18.4 mph N/A   Scattered Clouds
1:35 PM 62.6 °F 48.2 °F 59% 29.58 in 10.0 mi ESE 11.5 mph 16.1 mph N/A   Mostly Cloudy
1:55 PM 62.6 °F 46.4 °F 55% 29.59 in 10.0 mi ESE 10.4 mph 18.4 mph N/A   Mostly Cloudy
2:15 PM 62.6 °F 46.4 °F 55% 29.59 in 10.0 mi ESE 11.5 mph - N/A   Scattered Clouds
2:35 PM 62.6 °F 44.6 °F 52% 29.60 in 10.0 mi ESE 6.9 mph - N/A   Clear
2:55 PM 60.8 °F 44.6 °F 55% 29.60 in 10.0 mi ESE 10.4 mph - N/A   Clear
3:15 PM 60.8 °F 44.6 °F 55% 29.61 in 10.0 mi ESE 10.4 mph - N/A   Clear
3:35 PM 60.8 °F 42.8 °F 52% 29.62 in 10.0 mi ESE 13.8 mph 18.4 mph N/A   Scattered Clouds
3:55 PM 60.8 °F 42.8 °F 52% 29.62 in 10.0 mi ESE 10.4 mph - N/A   Scattered Clouds
4:15 PM 59.0 °F 39.2 °F 48% 29.63 in 10.0 mi SE 13.8 mph 19.6 mph N/A   Scattered Clouds
4:55 PM 57.2 °F 39.2 °F 51% 29.65 in 10.0 mi ESE 15.0 mph 21.9 mph N/A   Mostly Cloudy
5:16 PM 57.2 °F 39.2 °F 51% 29.66 in 10.0 mi ESE 13.8 mph 20.7 mph N/A   Mostly Cloudy
5:55 PM 55.4 °F 42.8 °F 63% 29.68 in 10.0 mi SE 10.4 mph 17.3 mph N/A   Mostly Cloudy
6:15 PM 55.4 °F 41.0 °F 58% 29.69 in 10.0 mi SE 11.5 mph 17.3 mph N/A   Mostly Cloudy
6:35 PM 53.6 °F 42.8 °F 67% 29.70 in 10.0 mi SE 11.5 mph 17.3 mph N/A   Mostly Cloudy
6:56 PM - - N/A% 29.71 in 10.0 mi SE 10.4 mph 16.1 mph N/A   Mostly Cloudy
7:15 PM 53.6 °F 39.2 °F 58% 29.72 in 10.0 mi SE 12.7 mph 20.7 mph N/A   Scattered Clouds
7:35 PM 53.6 °F 39.2 °F 58% 29.73 in 10.0 mi SE 11.5 mph 18.4 mph N/A   Clear
7:55 PM 51.8 °F 37.4 °F 58% 29.74 in 10.0 mi SE 17.3 mph 26.5 mph N/A   Clear
8:35 PM 51.8 °F 37.4 °F 58% 29.76 in 10.0 mi SE 13.8 mph 18.4 mph N/A   Clear
8:57 PM 51.8 °F 37.4 °F 58% 29.77 in 10.0 mi ESE 12.7 mph 20.7 mph N/A   Clear
9:15 PM 51.8 °F 37.4 °F 58% 29.78 in 10.0 mi ESE 12.7 mph 18.4 mph N/A   Clear
9:35 PM 50.0 °F 37.4 °F 62% 29.78 in 10.0 mi ESE 11.5 mph 17.3 mph N/A   Clear
9:55 PM 50.0 °F 37.4 °F 62% 29.79 in 10.0 mi ESE 12.7 mph - N/A   Clear
10:15 PM 50.0 °F 39.2 °F 66% 29.80 in 10.0 mi ESE 12.7 mph - N/A   Clear
10:35 PM 50.0 °F 39.2 °F 66% 29.81 in 10.0 mi ESE 16.1 mph 23.0 mph N/A   Clear
10:57 PM 50.0 °F 37.4 °F 62% 29.82 in 10.0 mi ESE 15.0 mph 20.7 mph N/A   Clear
11:15 PM 48.2 °F 37.4 °F 66% 29.82 in 10.0 mi ESE 16.1 mph - N/A   Clear
11:35 PM 48.2 °F 37.4 °F 66% 29.81 in 10.0 mi SE 12.7 mph 19.6 mph N/A   Clear
11:55 PM 48.2 °F 37.4 °F 66% 29.81 in 10.0 mi ESE 9.2 mph - N/A   Clear